Dauntless Aviation
Greetings, Guest! To participate, [sign up for a free account] or [log in]
Airports Europe Germany
EDSW

Altdorf-Wallburg

Altdorf-Wallburg, GERMANY

Airport Info
Edit

Location

Latitude / Longitude: 48°16'11"N / 7°50'31"E
  48°16.188'N / 7°50.532'E
  48.2698 / 7.8422
Satellite photo at:
Airport distance calculator
From:
Weather Reports

METAR

EDTL
5.8nm NW
EDTL 020850Z VRB03KT 9999 FEW016 17/12 Q1021
LFST
18.2nm NW
LFST 020900Z AUTO 02004KT 310V090 9999 NSC 19/13 Q1021
EDSB
32.3nm N
EDSB 020850Z 34004KT 290V050 9999 FEW018 18/12 Q1021

TAF

EDTL
5.8nm NW
TAF EDTL 020800Z 0209/0218 VRB03KT 9999 FEW045 BECMG 0209/0211 02008KT
LFST
18.2nm NW
TAF LFST 020500Z 0206/0306 VRB03KT CAVOK BECMG 0208/0210 SCT025 PROB40 TEMPO 0300/0306 3000 BR SCT010
EDSB
32.3nm N
TAF EDSB 020500Z 0206/0306 VRB03KT 9999 SCT040 PROB30 TEMPO 0206/0208 1200 BCFG BKN003 BECMG 0209/0211 03007KT PROB30 TEMPO 0302/0306 3000 BR BKN008
Safelog

 

Dauntless Aviation

© 2007-2014 Dauntless Aviation, all rights reserved
Information provided via PilotNav comes from a variety of official and unofficial data sources. As errors are possible, do not use PilotNav for primary flight planning purposes. Verify any information that you receive via PilotNav with current and canonical charts and other official documents. The material in this database is subject to database copyrights held by Dauntless Aviation and may not be copied without the express permission of Dauntless Aviation - licenses for use of part of all of this data are available for purchase; enquire via the Dauntless Aviation helpdesk. A number of mechanisms and markers exist in the database to protect against and identify infringement / copyright. Automated queries against this website are stictly prohibited, and all activity is logged and analyzed.